JJA167 RKSI-RKPC

Flight info

Callsign JJA167
Flight time 0h 45m
Altitude 24000
Route BOPTA2Y BOPTA Z51 BEDES Y711 DOTOL
Aircraft B738/M-SDE2E3FGHIRWXY/LB1

Departure

Time 2026-05-04 12:47
Airport Incheon International Airport (RKSI)

Arrival

Time 2026-05-04 13:33
Airport Jeju International Airport (RKPC)
Time Latitude Longitude Altitude Speed Heading
2026-05-04 12:27 37.44543 126.44884 32 ft 0 kts 352°
2026-05-04 12:27 37.44535 126.44886 30 ft 0 kts 352°
2026-05-04 12:37 37.44512 126.44889 31 ft 4 kts 356°
2026-05-04 12:37 37.44490 126.44890 31 ft 3 kts
2026-05-04 12:38 37.44466 126.44889 32 ft 2 kts
2026-05-04 12:38 37.44443 126.44886 32 ft 4 kts 12°
2026-05-04 12:38 37.44418 126.44878 31 ft 2 kts 18°
2026-05-04 12:38 37.44397 126.44872 31 ft 4 kts 357°
2026-05-04 12:39 37.44376 126.44874 31 ft 4 kts 360°
2026-05-04 12:39 37.44350 126.44873 32 ft 3 kts
2026-05-04 12:39 37.44346 126.44872 30 ft 1 kts
2026-05-04 12:42 37.44349 126.44873 32 ft 4 kts
2026-05-04 12:42 37.44397 126.44855 32 ft 8 kts 316°
2026-05-04 12:43 37.44411 126.44750 32 ft 16 kts 280°
2026-05-04 12:43 37.44451 126.44648 32 ft 13 kts 311°
2026-05-04 12:43 37.44524 126.44590 32 ft 12 kts 334°
2026-05-04 12:43 37.44537 126.44498 32 ft 12 kts 234°
2026-05-04 12:44 37.44490 126.44412 32 ft 12 kts 235°
2026-05-04 12:44 37.44443 126.44330 32 ft 11 kts 234°
2026-05-04 12:44 37.44398 126.44249 30 ft 11 kts 234°
2026-05-04 12:44 37.44361 126.44168 29 ft 8 kts 270°
2026-05-04 12:45 37.44380 126.44141 30 ft 0 kts 326°
2026-05-04 12:46 37.44450 126.44079 32 ft 40 kts 325°
2026-05-04 12:46 37.44856 126.43699 30 ft 104 kts 321°
2026-05-04 12:46 37.45600 126.43060 40 ft 151 kts 323°
2026-05-04 12:47 37.46497 126.42251 440 ft 162 kts 321°
2026-05-04 12:47 37.47437 126.41449 1098 ft 160 kts 321°
2026-05-04 12:47 37.48122 126.40396 1743 ft 156 kts 302°
2026-05-04 12:47 37.48828 126.39234 2036 ft 180 kts 308°
2026-05-04 12:48 37.49679 126.37938 2244 ft 202 kts 307°
2026-05-04 12:48 37.50317 126.36296 2461 ft 219 kts 279°
2026-05-04 12:48 37.50162 126.34341 2791 ft 238 kts 251°
2026-05-04 12:48 37.49159 126.32605 3229 ft 256 kts 220°
2026-05-04 12:49 37.47513 126.31701 3877 ft 267 kts 189°
2026-05-04 12:49 37.45671 126.31934 4584 ft 273 kts 166°
2026-05-04 12:49 37.43826 126.32677 5280 ft 277 kts 162°
2026-05-04 12:49 37.41999 126.33484 5961 ft 280 kts 162°
2026-05-04 12:50 37.40155 126.34302 6684 ft 282 kts 162°
2026-05-04 12:50 37.38315 126.35106 7344 ft 285 kts 162°
2026-05-04 12:50 37.36421 126.35920 8008 ft 290 kts 162°
2026-05-04 12:50 37.34501 126.36733 8688 ft 294 kts 162°
2026-05-04 12:51 37.32546 126.37552 9403 ft 298 kts 162°
2026-05-04 12:51 37.30570 126.38374 10095 ft 302 kts 162°
2026-05-04 12:51 37.28523 126.39220 10439 ft 320 kts 162°
2026-05-04 12:51 37.26338 126.40120 10609 ft 342 kts 162°
2026-05-04 12:52 37.24005 126.41078 10832 ft 361 kts 162°
2026-05-04 12:52 37.21591 126.42066 11350 ft 368 kts 162°
2026-05-04 12:52 37.19149 126.43066 12055 ft 370 kts 162°
2026-05-04 12:52 37.16701 126.44066 12800 ft 371 kts 162°
2026-05-04 12:53 37.14232 126.45074 13525 ft 374 kts 162°
2026-05-04 12:53 37.11744 126.46089 14220 ft 377 kts 162°
2026-05-04 12:53 37.09235 126.47111 14878 ft 381 kts 162°
2026-05-04 12:53 37.06705 126.48142 15529 ft 384 kts 162°
2026-05-04 12:54 37.04144 126.49184 16037 ft 389 kts 162°
2026-05-04 12:54 37.01574 126.50229 16086 ft 387 kts 162°
2026-05-04 12:54 36.98995 126.51277 16103 ft 391 kts 162°
2026-05-04 12:54 36.96399 126.52331 16245 ft 396 kts 162°
2026-05-04 12:55 36.93763 126.53401 16909 ft 398 kts 162°
2026-05-04 12:55 36.91129 126.54469 17709 ft 398 kts 162°
2026-05-04 12:55 36.88488 126.55539 18349 ft 402 kts 162°
2026-05-04 12:55 36.85809 126.56624 18853 ft 406 kts 162°
2026-05-04 12:56 36.83119 126.57713 19510 ft 406 kts 161°
2026-05-04 12:56 36.80426 126.58802 20108 ft 409 kts 161°
2026-05-04 12:56 36.77740 126.59888 20595 ft 413 kts 162°
2026-05-04 12:56 36.74949 126.61014 21097 ft 418 kts 162°
2026-05-04 12:57 36.72179 126.62116 21619 ft 421 kts 163°
2026-05-04 12:57 36.69380 126.63102 22139 ft 424 kts 165°
2026-05-04 12:57 36.66475 126.64055 22640 ft 428 kts 165°
2026-05-04 12:57 36.63582 126.64987 23128 ft 431 kts 165°
2026-05-04 12:58 36.60708 126.65922 23523 ft 436 kts 166°
2026-05-04 12:58 36.57753 126.66895 23863 ft 441 kts 166°
2026-05-04 12:58 36.54772 126.67886 24103 ft 445 kts 166°
2026-05-04 12:58 36.51763 126.68893 24096 ft 449 kts 166°
2026-05-04 12:59 36.48757 126.69901 24102 ft 447 kts 166°
2026-05-04 12:59 36.45754 126.70908 24108 ft 446 kts 166°
2026-05-04 12:59 36.42754 126.71912 24110 ft 446 kts 166°
2026-05-04 12:59 36.39754 126.72914 24108 ft 447 kts 166°
2026-05-04 13:00 36.36753 126.73918 24104 ft 447 kts 166°
2026-05-04 13:00 36.33745 126.74929 24110 ft 448 kts 166°
2026-05-04 13:00 36.30736 126.75943 24113 ft 448 kts 167°
2026-05-04 13:00 36.27724 126.76959 24114 ft 449 kts 167°
2026-05-04 13:01 36.24703 126.77976 24113 ft 449 kts 167°
2026-05-04 13:01 36.21690 126.78989 24112 ft 449 kts 167°
2026-05-04 13:01 36.18666 126.80003 24112 ft 449 kts 167°
2026-05-04 13:01 36.15621 126.80815 24108 ft 446 kts 175°
2026-05-04 13:02 36.12543 126.81032 24117 ft 441 kts 186°
2026-05-04 13:02 36.09493 126.80714 24128 ft 439 kts 189°
2026-05-04 13:02 36.06450 126.80328 24120 ft 439 kts 189°
2026-05-04 13:02 36.03413 126.79953 24124 ft 438 kts 189°
2026-05-04 13:03 36.00383 126.79599 24130 ft 438 kts 188°
2026-05-04 13:03 35.97341 126.79261 24122 ft 438 kts 188°
2026-05-04 13:03 35.94310 126.78933 24129 ft 437 kts 188°
2026-05-04 13:03 35.91318 126.78610 24130 ft 437 kts 188°
2026-05-04 13:04 35.88291 126.78283 24134 ft 436 kts 188°
2026-05-04 13:04 35.85269 126.77957 24121 ft 436 kts 188°
2026-05-04 13:04 35.82246 126.77632 24123 ft 435 kts 188°
2026-05-04 13:04 35.79228 126.77306 24123 ft 435 kts 188°
2026-05-04 13:05 35.76213 126.76982 24114 ft 435 kts 188°
2026-05-04 13:05 35.73197 126.76657 24119 ft 435 kts 188°
2026-05-04 13:05 35.70176 126.76332 24124 ft 435 kts 188°
2026-05-04 13:05 35.67155 126.76007 24127 ft 435 kts 188°
2026-05-04 13:06 35.64139 126.75683 24126 ft 436 kts 188°
2026-05-04 13:06 35.61118 126.75359 24128 ft 436 kts 188°
2026-05-04 13:06 35.58097 126.75035 24112 ft 436 kts 188°
2026-05-04 13:06 35.55078 126.74712 24109 ft 435 kts 188°
2026-05-04 13:07 35.52059 126.74388 24117 ft 435 kts 188°
2026-05-04 13:07 35.49041 126.74066 24122 ft 435 kts 188°
2026-05-04 13:07 35.46024 126.73745 24121 ft 435 kts 188°
2026-05-04 13:07 35.43007 126.73426 24119 ft 435 kts 188°
2026-05-04 13:08 35.39993 126.73106 24120 ft 435 kts 188°
2026-05-04 13:08 35.36978 126.72787 24110 ft 435 kts 188°
2026-05-04 13:08 35.33961 126.72467 24118 ft 434 kts 188°
2026-05-04 13:08 35.30953 126.72149 24124 ft 434 kts 188°
2026-05-04 13:09 35.27950 126.71831 24119 ft 433 kts 188°
2026-05-04 13:09 35.24946 126.71514 24121 ft 433 kts 188°
2026-05-04 13:09 35.21938 126.71196 24123 ft 433 kts 188°
2026-05-04 13:09 35.18938 126.70879 24116 ft 433 kts 188°
2026-05-04 13:10 35.16632 126.70636 24115 ft 432 kts 188°
2026-05-04 13:10 35.13643 126.70321 24121 ft 432 kts 188°
2026-05-04 13:10 35.10639 126.70004 24123 ft 431 kts 188°
2026-05-04 13:10 35.07643 126.69687 24121 ft 431 kts 188°
2026-05-04 13:11 35.04657 126.69371 24122 ft 431 kts 188°
2026-05-04 13:11 35.01752 126.69066 24106 ft 418 kts 188°
2026-05-04 13:11 34.98898 126.68768 24105 ft 407 kts 188°
2026-05-04 13:11 34.96110 126.68476 24101 ft 395 kts 188°
2026-05-04 13:12 34.93422 126.68195 24101 ft 380 kts 189°
2026-05-04 13:12 34.90835 126.67924 24093 ft 366 kts 189°
2026-05-04 13:12 34.88343 126.67662 23998 ft 355 kts 189°
2026-05-04 13:12 34.85894 126.67403 23716 ft 351 kts 189°
2026-05-04 13:13 34.83464 126.67143 23218 ft 352 kts 189°
2026-05-04 13:13 34.80985 126.66876 22233 ft 365 kts 188°
2026-05-04 13:13 34.78386 126.66594 21017 ft 385 kts 188°
2026-05-04 13:13 34.75681 126.66306 20256 ft 392 kts 188°
2026-05-04 13:14 34.72975 126.66023 19792 ft 389 kts 188°
2026-05-04 13:14 34.70298 126.65746 19395 ft 384 kts 188°
2026-05-04 13:14 34.67643 126.65470 18945 ft 381 kts 188°
2026-05-04 13:14 34.65002 126.65195 18452 ft 380 kts 188°
2026-05-04 13:15 34.62372 126.64920 17917 ft 379 kts 187°
2026-05-04 13:15 34.59755 126.64646 17416 ft 376 kts 188°
2026-05-04 13:15 34.57165 126.64375 16954 ft 373 kts 188°
2026-05-04 13:15 34.54584 126.64105 16480 ft 370 kts 188°
2026-05-04 13:16 34.52026 126.63838 16026 ft 368 kts 188°
2026-05-04 13:16 34.49485 126.63572 15575 ft 366 kts 188°
2026-05-04 13:16 34.47806 126.63396 15278 ft 364 kts 188°
2026-05-04 13:16 34.45295 126.63134 14897 ft 360 kts 188°
2026-05-04 13:17 34.42822 126.62877 14671 ft 355 kts 188°
2026-05-04 13:17 34.40372 126.62619 14424 ft 351 kts 188°
2026-05-04 13:17 34.37926 126.62354 14192 ft 355 kts 188°
2026-05-04 13:17 34.35458 126.62085 13969 ft 359 kts 188°
2026-05-04 13:18 34.32969 126.61815 13706 ft 358 kts 188°
2026-05-04 13:18 34.30493 126.61549 13441 ft 355 kts 188°
2026-05-04 13:18 34.28043 126.61285 13174 ft 353 kts 188°
2026-05-04 13:18 34.25599 126.61022 12920 ft 352 kts 188°
2026-05-04 13:19 34.23156 126.60765 12670 ft 351 kts 188°
2026-05-04 13:19 34.20760 126.60517 12394 ft 349 kts 187°
2026-05-04 13:19 34.18342 126.60268 11958 ft 348 kts 188°
2026-05-04 13:19 34.15934 126.60020 11554 ft 345 kts 187°
2026-05-04 13:20 34.13549 126.59774 11152 ft 342 kts 187°
2026-05-04 13:20 34.11182 126.59530 10809 ft 338 kts 187°
2026-05-04 13:20 34.08883 126.59294 10675 ft 327 kts 187°
2026-05-04 13:20 34.06647 126.59064 10536 ft 318 kts 187°
2026-05-04 13:21 34.04475 126.58840 10393 ft 308 kts 188°
2026-05-04 13:21 34.02356 126.58786 10252 ft 303 kts 173°
2026-05-04 13:21 34.00425 126.59724 10146 ft 299 kts 145°
2026-05-04 13:21 33.99031 126.61511 10024 ft 292 kts 121°
2026-05-04 13:22 33.98064 126.63643 9722 ft 290 kts 127°
2026-05-04 13:22 33.96513 126.65112 9306 ft 287 kts 162°
2026-05-04 13:22 33.94603 126.65659 8953 ft 279 kts 171°
2026-05-04 13:22 33.92693 126.66142 8452 ft 280 kts 169°
2026-05-04 13:23 33.90797 126.66683 8011 ft 278 kts 167°
2026-05-04 13:23 33.88934 126.67272 7584 ft 276 kts 166°
2026-05-04 13:23 33.87117 126.67884 7201 ft 273 kts 165°
2026-05-04 13:23 33.85309 126.68521 6871 ft 268 kts 165°
2026-05-04 13:24 33.83547 126.69156 6604 ft 261 kts 164°
2026-05-04 13:24 33.81830 126.69785 6293 ft 255 kts 164°
2026-05-04 13:24 33.80153 126.70405 6018 ft 250 kts 163°
2026-05-04 13:25 33.76813 126.71648 5527 ft 255 kts 163°
2026-05-04 13:25 33.75091 126.72290 5401 ft 261 kts 163°
2026-05-04 13:25 33.73375 126.72932 5257 ft 254 kts 163°
2026-05-04 13:25 33.71736 126.73545 5122 ft 240 kts 163°
2026-05-04 13:26 33.70181 126.74127 5012 ft 227 kts 163°
2026-05-04 13:26 33.68680 126.74687 4931 ft 226 kts 163°
2026-05-04 13:26 33.67155 126.75256 4732 ft 234 kts 163°
2026-05-04 13:26 33.65564 126.75431 4501 ft 228 kts 196°
2026-05-04 13:27 33.64273 126.74524 4297 ft 209 kts 228°
2026-05-04 13:27 33.63425 126.73191 4098 ft 193 kts 241°
2026-05-04 13:27 33.62787 126.71849 4016 ft 182 kts 242°
2026-05-04 13:27 33.62153 126.70541 4017 ft 181 kts 241°
2026-05-04 13:28 33.61494 126.69226 3807 ft 185 kts 240°
2026-05-04 13:28 33.60826 126.67914 3564 ft 182 kts 240°
2026-05-04 13:28 33.60170 126.66637 3306 ft 178 kts 240°
2026-05-04 13:28 33.59526 126.65385 3082 ft 176 kts 240°
2026-05-04 13:29 33.58886 126.64143 2853 ft 173 kts 240°
2026-05-04 13:29 33.58262 126.62932 2625 ft 174 kts 240°
2026-05-04 13:29 33.57626 126.61697 2397 ft 173 kts 240°
2026-05-04 13:29 33.57001 126.60485 2174 ft 171 kts 240°
2026-05-04 13:30 33.56390 126.59297 1909 ft 161 kts 239°
2026-05-04 13:30 33.55818 126.58184 1719 ft 150 kts 239°
2026-05-04 13:30 33.55286 126.57152 1536 ft 147 kts 238°
2026-05-04 13:30 33.54743 126.56095 1389 ft 150 kts 238°
2026-05-04 13:31 33.54197 126.55035 1179 ft 149 kts 238°
2026-05-04 13:31 33.53657 126.53986 990 ft 147 kts 238°
2026-05-04 13:31 33.53116 126.52932 748 ft 149 kts 238°
2026-05-04 13:31 33.52577 126.51884 558 ft 147 kts 238°
2026-05-04 13:32 33.52041 126.50842 370 ft 147 kts 238°
2026-05-04 13:32 33.51500 126.49788 139 ft 148 kts 237°
2026-05-04 13:32 33.50994 126.48800 91 ft 125 kts 238°
2026-05-04 13:32 33.50652 126.48134 91 ft 63 kts 237°
2026-05-04 13:33 33.50476 126.47939 92 ft 24 kts 204°
2026-05-04 13:33 33.50376 126.47972 92 ft 9 kts 72°
2026-05-04 13:33 33.50409 126.48038 94 ft 9 kts 56°
2026-05-04 13:33 33.50443 126.48105 92 ft 10 kts 60°
2026-05-04 13:34 33.50492 126.48201 93 ft 15 kts 59°
2026-05-04 13:34 33.50547 126.48308 91 ft 15 kts 58°
2026-05-04 13:34 33.50599 126.48411 91 ft 14 kts 57°
2026-05-04 13:34 33.50621 126.48514 90 ft 14 kts 123°
2026-05-04 13:35 33.50541 126.48569 91 ft 13 kts 141°
2026-05-04 13:35 33.50594 126.48745 91 ft 12 kts 60°
2026-05-04 13:35 33.50637 126.48833 88 ft 12 kts 57°
2026-05-04 13:36 33.50682 126.48917 88 ft 12 kts 57°
2026-05-04 13:36 33.50723 126.49001 90 ft 11 kts 60°
2026-05-04 13:36 33.50763 126.49082 90 ft 11 kts 53°
2026-05-04 13:36 33.50805 126.49157 91 ft 11 kts 57°
2026-05-04 13:37 33.50844 126.49235 91 ft 11 kts 60°
2026-05-04 13:37 33.50879 126.49310 90 ft 10 kts 60°
2026-05-04 13:37 33.50918 126.49380 91 ft 10 kts 55°
2026-05-04 13:37 33.50941 126.49426 93 ft 10 kts 74°
2026-05-04 13:38 33.50935 126.49533 93 ft 9 kts 96°
2026-05-04 13:38 33.50908 126.49602 94 ft 9 kts 125°
2026-05-04 13:38 33.50872 126.49662 96 ft 9 kts 126°
2026-05-04 13:38 33.50836 126.49722 97 ft 9 kts 126°
2026-05-04 13:39 33.50800 126.49780 99 ft 8 kts 126°
2026-05-04 13:39 33.50767 126.49837 101 ft 8 kts 125°
2026-05-04 13:39 33.50724 126.49870 102 ft 8 kts 193°
2026-05-04 13:39 33.50700 126.49854 102 ft 2 kts 217°
2026-05-04 13:40 33.50696 126.49850 102 ft 0 kts 217°